sat.trackr.live / text

‹ back to catalog

SHIJIAN-6 05A (SJ-6 05A)

NORAD 49961 · 2021-122A

PAYLOAD ACTIVE UNKNOWN

§ Identity

Operator
Country
PRC
Launch date
2021-12-10
Launch site
JSC
Launch vehicle
Mass (kg)
RCS (m²)

External: N2YO · Heavens-Above · Gunter

§ Orbital elements

Epoch: 2026-09-15T11:19:27.948000Z

Period
96.01 min
Inclination
97.4230°
Eccentricity
0.0003125
Mean motion
14.99768847 rev/d
Perigee alt
565.4 km
Apogee alt
569.8 km
Semi-major
6,945.7 km
B*
9.2635e-5
RAAN
222.7270°
Arg perigee
56.5556°
Mean anomaly
303.5967°
Rev number
26,228

§ Raw data

SHIJIAN-6 05A (SJ-6 05A)1 49961U 21122A   26258.47185125  .00001089  00000+0  92635-4 0  99992 49961  97.4230 222.7270 0003125  56.5556 303.5967 14.99768847262287

JSON: /api/v1/satellites/49961 · /tle

For live sub-satellite position, see the globe view (requires WebGL).

§ Visibility from observer

Set your observer location to see the next 7 days of passes ≥ 10°. The values pass through the URL so the page stays shareable.

No JS? Fill the form by hand. The geolocation button needs JavaScript.